Location: Phoenix
(33.4480°N, 112.0730°W)
Time: 13:29:09
(UTC-07:00)

Daily predictions for brighter satellites

Satellite Brightness Start Highest point End
(mag) Time Altitude Azimuth Time Altitude Azimuth Time Altitude Azimuth
BREEZE-M DEB (TANK) 3.7 19:29:18 10° WSW 19:33:11 83° NNW 19:39:53 10° NE
Cosmos 1992 Rocket 4.0 19:28:12 10° SSW 19:33:25 81° ESE 19:38:40 10° NNE
ATLAS 5 CENTAUR R/B 3.3 19:29:40 10° NNW 19:35:10 34° NE 19:41:01 10° ESE
Resurs 01 Rocket 2.0 19:31:35 10° SE 19:35:48 45° ENE 19:40:03 10° N
COSMOS 2428 3.9 19:32:06 10° SE 19:36:02 20° E 19:39:58 10° NE
Cosmos 1869 4.2 19:42:13 10° SSW 19:46:03 52° W 19:49:55 10° N
Atlas Centaur 2 2.6 19:42:12 10° WSW 19:47:57 68° S 19:55:15 10° E
Cosmos 2322 3.8 19:43:26 10° S 19:48:58 54° ESE 19:54:32 10° NNE
Intelsat 5-1 Rocket 3.4 19:46:54 10° SW 19:49:00 14° S 19:50:36 10° SSE
USA 267 3.7 19:44:31 10° NE 19:51:01 69° NW 19:57:29 10° SW
Cosmos 1733 Rocket 3.4 19:46:43 10° N 19:51:01 47° E 19:55:17 10° SSE
SL-16 R/B 3.7 19:46:48 10° SW 19:52:09 43° WNW 19:57:32 10° N
OAO 3 Rocket 3.2 19:53:00 10° W 19:57:51 79° SSW 20:02:01 14° ESE
SJ-6B 4.4 19:54:33 10° SSW 19:58:15 38° W 20:02:02 10° NNW
Cosmos 1862 Rocket 3.5 19:54:21 10° S 19:58:47 74° E 20:03:15 10° N
Meteor 2-20 Rocket 4.5 19:53:24 10° N 19:59:34 86° E 20:05:43 10° S
CZ-2D R/B 3.2 19:56:54 10° SSE 20:00:45 74° ENE 20:04:37 10° N
Meteor 2-10 Rocket 3.9 19:59:31 10° S 20:05:10 54° E 20:10:46 10° NNE
Spot 2 Rocket 3.5 20:01:33 10° SSE 20:06:39 88° WSW 20:11:45 10° NNW
Cosmos 968 Rocket 4.1 20:02:01 10° N 20:06:53 38° ENE 20:10:34 16° SE
Cosmos 2026 Rocket 4.0 20:01:31 10° N 20:07:42 87° W 20:13:47 10° S
Cosmos 1844 Rocket 4.4 20:05:31 10° NNE 20:08:55 16° ENE 20:11:29 12° E
Lacrosse 4 Rocket 3.1 20:09:46 10° NW 20:13:42 33° WSW 20:17:41 10° S
Cosmos 2333 Rocket 3.5 20:13:47 18° ESE 20:14:59 19° E 20:18:52 10° ENE
Helios 1B rocket 2.3 20:12:35 10° NNE 20:16:41 68° ESE 20:20:45 10° S
ALOS 4.2 20:13:10 10° SSW 20:17:11 29° W 20:21:13 10° NW
Cosmos 1703 Rocket 3.9 20:15:43 10° SSE 20:19:55 43° E 20:24:06 10° NNE
USA 186 1.7 20:19:50 15° S 20:22:03 69° W 20:25:02 10° NNW
SAR-Lupe-4 3.6 20:22:07 23° SSE 20:24:06 57° ENE 20:27:39 10° N
Resurs 1-3 4.4 20:21:48 10° S 20:26:03 51° W 20:30:20 10° NNW
Meteor 1-29 2.8 20:23:07 10° NNE 20:26:34 72° E 20:29:58 10° S
Envisat 3.0 20:23:08 17° SSE 20:26:59 62° ENE 20:32:00 10° N
Cosmos 2219 Rocket 2.8 20:23:32 12° SSE 20:27:58 31° ESE 20:32:51 10° NE
SEDSat Delta rocket 3.6 20:34:30 10° W 20:39:19 58° S 20:41:39 32° SE
Gbstr 26 Del rocket 4.5 20:32:58 10° SSW 20:39:56 52° SE 20:47:42 10° NE
SAR-Lupe-1 3.9 20:39:58 36° SSE 20:41:20 86° ENE 20:44:56 10° NNW
ERS-1 Rocket 3.5 20:41:58 32° ESE 20:43:25 39° ENE 20:48:03 10° N
H-2A R/B 4.0 20:47:20 12° ENE 20:47:20 12° ENE 20:49:01 10° NE
Cosmos 1867 3.6 20:43:31 10° NNW 20:48:58 78° WSW 20:51:41 30° SSE
Cosmos 2263 Rocket 3.4 20:47:23 10° NW 20:52:30 38° WSW 20:57:26 11° S
Cosmos 1570 Rocket 4.3 20:51:52 39° SE 20:52:57 44° ESE 20:57:56 10° NNE
Cosmos 1782 3.6 20:54:00 35° ENE 20:54:00 35° ENE 20:56:57 10° NNE
Cosmos 2221 Rocket 3.4 20:51:30 27° S 20:53:51 83° E 20:58:17 10° N
Sakura Rocket 3.3 20:51:45 10° WSW 20:55:01 40° S 20:55:01 40° S
Cosmos 2266 Rocket 3.9 20:51:00 10° N 20:57:22 79° E 21:00:58 28° SSE
NOSS 3-1 (C) 3.2 20:57:57 10° SSW 21:03:35 90° SSW 21:09:50 10° NNE
Cosmos 2208 Rocket 4.1 21:05:31 50° SE 21:06:17 55° ESE 21:11:29 10° NNE
CZ-4B DEB 4.4 21:10:53 27° WSW 21:11:07 27° W 21:13:46 10° NW
Resurs 01 Rocket 4.5 21:10:28 10° WSW 21:12:27 13° W 21:14:27 10° WNW
Cosmos 1939 Rocket 3.9 21:12:42 31° SW 21:14:01 41° W 21:17:49 10° NNW
FALCON 9 R/B 3.3 21:16:08 10° W 21:16:31 14° W 21:16:31 14° W
COSMOS 2428 3.7 21:14:26 10° SW 21:19:51 46° WNW 21:25:20 10° N
ATLAS 5 CENTAUR R/B 3.5 21:14:10 10° NW 21:19:57 40° WSW 21:23:12 24° SSW
YAOGAN 6 3.2 21:20:29 54° WNW 21:20:29 54° WNW 21:23:40 10° NNW
NOSS 3-1 (A) 3.2 21:15:49 10° SSW 21:21:27 89° ESE 21:27:42 10° NNE
Cosmos 1606 4.0 21:23:21 32° NNE 21:23:21 32° NNE 21:25:30 10° N
ARGOS 3.4 21:22:46 50° ENE 21:22:46 50° ENE 21:27:55 10° N
Cosmos 1980 3.6 21:23:56 62° E 21:23:56 62° E 21:29:17 10° NNE
NOAA 11 4.1 21:23:10 65° ESE 21:23:46 72° ENE 21:29:14 10° N
Okean 1-7 4.0 21:22:12 27° SW 21:24:12 46° W 21:28:27 10° N
Cosmos 1244 Rocket 4.5 21:21:09 10° N 21:27:22 62° E 21:28:01 59° ESE
Cosmos 1782 Rocket 4.2 21:24:49 10° NNW 21:29:04 50° W 21:29:35 47° WSW
Cosmos 1777 Rocket 4.1 21:24:08 10° NNW 21:29:22 71° WSW 21:30:02 62° SSW
Cosmos 1553 Rocket 4.2 21:30:41 51° E 21:30:41 51° E 21:36:24 10° NNE
SL-16 R/B 4.4 21:35:10 12° NE 21:35:10 12° NE 21:35:36 10° NE
Cosmos 1844 3.7 21:26:04 10° NNW 21:31:40 63° ENE 21:31:42 63° ENE
SPOT 1/Viking Rocket 4.2 21:35:38 43° NE 21:35:38 43° NE 21:39:50 10° N
Atlas Centaur 2 2.8 21:30:47 10° W 21:37:21 60° S 21:38:06 57° SSE
Meteor 1-10 Rocket 4.4 21:36:26 45° SSW 21:38:17 74° W 21:44:09 10° N
OAO 1 Rocket 4.4 21:33:22 10° W 21:38:34 81° NW 21:38:34 81° NW
USA 245 4.1 21:42:48 72° NNE 21:42:48 72° NNE 21:47:10 10° N
MetOp-A 4.2 21:45:01 70° WSW 21:45:11 71° WSW 21:50:33 10° NNW
Milstar 3 3.9 21:39:22 10° W 21:45:23 28° SSW 21:45:23 28° SSW
Meteor 1-11 Rocket 4.3 21:42:16 10° N 21:46:32 44° NE 21:46:32 44° NE
Cosmos 2237 Rocket 2.2 21:50:19 81° NW 21:50:19 81° NW 21:55:54 10° NNE
Okean 2 Rocket 4.2 21:46:06 10° NNW 21:50:07 40° W 21:50:07 40° W
Cosmos 1844 Rocket 2.9 21:47:43 10° NNW 21:53:10 60° WSW 21:53:10 60° WSW
MOS 1-B Rocket 3.8 21:53:28 87° WNW 21:53:28 87° WNW 21:59:01 10° NNW
Cosmos 2333 Rocket 3.0 21:55:34 24° SW 21:58:46 49° WNW 22:04:21 10° N
Cosmos 2278 Rocket 2.7 21:54:47 10° NNW 21:59:16 50° NNE 21:59:16 50° NNE
CZ-4C R/B 3.1 21:54:34 10° NNW 22:01:48 58° ENE 22:02:18 57° ENE
S3M 3.9 22:03:20 78° N 22:03:20 78° N 22:09:07 10° N
USA 234 3.1 22:04:59 86° E 22:05:06 87° NE 22:11:40 10° NW
H-2A R/B 3.5 20:41:40 10° W 22:07:42 67° SSW 22:08:57 61° SSE
Cosmos 2219 Rocket 3.9 22:07:02 10° WSW 22:11:49 29° WNW 22:16:40 10° N
SPOT 5 4.2 22:16:20 34° WNW 22:16:20 34° WNW 22:19:25 10° NNW
SeaSat 1 3.7 22:18:21 38° N 22:18:21 38° N 22:21:24 10° NNW
H-2A R/B 3.3 22:27:57 36° NW 22:27:57 36° NW 22:30:55 10° NNW
Terra 4.0 22:50:16 23° NNW 22:50:16 23° NNW 22:52:08 10° NNW
ATLAS 2AS CENTAUR R/B 3.4 23:14:13 59° N 23:14:13 59° N 23:20:58 10° NNE
SL-16 R/B 4.0 23:16:58 28° NNW 23:16:58 28° NNW 23:20:10 10° N
ATLAS 3B R/B 3.9 23:33:37 10° NNW 23:37:42 35° N 23:37:42 35° N
